Regional Weather Roundup
Issued by NWS

Home | Current Version | Previous Version | Text Only | Print | Product List | Glossary Off
Versions: 1 2 3 4 5 6 7 8 9 10 11 12 13 14 15 16 17 18 19 20 21 22 23 24 25 26 27 28 29 30 31 32 33 34 35 36 37 38 39 40 41 42 43 44 45 46 47 48 49 50

290
ASUS43 KLOT 201108
RWRIL

ILLINOIS REGIONAL WEATHER ROUNDUP
NATIONAL WEATHER SERVICE CHICAGO/ROMEOVILLE IL
500 AM CST SAT JAN 20 2018

NOTE: "FAIR" INDICATES FEW OR NO CLOUDS BELOW 12,000 FEET WITH NO
SIGNIFICANT WEATHER AND/OR OBSTRUCTIONS TO VISIBILITY.

* THESE STATIONS ARE NOT UNDER NWS QUALITY CONTROL. THEY ALSO MAY NOT
  REPORT WEATHER SUCH AS PRECIPITATION OR FOG.

ILZ001-002-007-009-015-016-024-201200-
NORTHWEST ILLINOIS

CITY           SKY/WX    TMP DP  RH WIND       PRES   REMARKS
MOLINE         FAIR      35  28  75 SW3       29.84R
STERLING*      FAIR      32  28  85 VRB5      29.85  WCI  27
SAVANNA*       FAIR      33  28  81 SW6       29.83S WCI  27
$$

ILZ003-004-008-010-011-017-018-201200-
NORTH CENTRAL ILLINOIS

CITY           SKY/WX    TMP DP  RH WIND       PRES   REMARKS
ROCKFORD       FAIR      34  27  75 SW6       29.84S WCI  29
FREEPORT*      FAIR      33  28  82 SW9       29.84R WCI  25
ROCHELLE*      FAIR      32  29  88 SW8       29.85R WCI  25
DE KALB*       FAIR      36  29  76 SW9       29.84R WCI  29
PERU*          FAIR      35  27  73 SW12      29.87R WCI  27
$$

ILZ005-006-012>014-019>023-201200-
NORTHEAST ILLINOIS

CITY           SKY/WX    TMP DP  RH WIND       PRES   REMARKS
CHICAGO-OHARE  CLOUDY    36  27  69 SW8       29.83R WCI  30
CHICAGO-MIDWAY MOCLDY    36  28  73 SW9       29.85R WCI  29
AURORA         FAIR      32  26  78 SW8       29.85R WCI  25
LANSING*       FAIR      29  27  92 S8        29.87S WCI  21
JOLIET*        FAIR      34  29  82 SW5       29.87S WCI  29
WAUKEGAN       FAIR      38  29  70 W6        29.81R WCI  33
DUPAGE AIRPORT FAIR      32  27  81 SW12      29.84R WCI  23
KANKAKEE*      FAIR     N/A N/A N/A SW8       29.90R
WHEELING       FAIR      36  28  73 SW7       29.84S WCI  30
MORRIS*        FAIR      32  27  83 SW8       29.86S WCI  25
ROMEOVILLE*    FAIR      30  27  86 SW9       29.86R WCI  22
NORTHERLY ISL    N/A     37  26  65 SW10        N/A  WCI  30
$$

LMZ740>746-201200-
SOUTHERN LAKE MICHIGAN

STATION/POSITION SKY/WX   TEMP    WIND        PRES    VSBY  WAVE
                          AIR SEA DIR/SP/G                  HT/PER
                          (F)     (DEG/KT/KT) (MB)    (MI)  (FT/S)
HARRISON CRIB              40     230/ 13/ 15   N/A
BURNHAM HARBOR             37     200/  5/ 10   N/A
CALUMET HARBOR             35     210/ 10/ 13 1010.3R
BURNS HARBOR               36     200/ 19/ 28 1011.9R
MICHIGAN CITY              36     190/ 14/ 16   N/A
$$

ILZ025>027-034>036-040-047-049-050-058-095>099-201200-
WEST-CENTRAL ILLINOIS

CITY           SKY/WX    TMP DP  RH WIND       PRES   REMARKS
QUINCY         CLOUDY    37  30  75 SW13      29.90R WCI  29
GALESBURG*     FAIR      35  30  84 SW9       29.87S WCI  27
MACOMB*        CLOUDY    37  30  78 SW9       29.90S WCI  30
JACKSONVILLE*  CLOUDY    33  27  76 S7        29.93R WCI  27
PITTSFIELD*    CLOUDY    40  32  74 SW9       29.93S
$$

ILZ028>032-037-038-041>044-048-051>054-059>061-201200-
CENTRAL ILLINOIS

CITY           SKY/WX    TMP DP  RH WIND       PRES   REMARKS
PONTIAC        FAIR      35  31  84 SW12      29.90R WCI  27
BLOOMINGTON    FAIR      32  28  85 SW14      29.91R WCI  22
DECATUR        FAIR      33  28  81 SW17      29.95R WCI  22
PEORIA         FAIR      30  25  81 S6        29.90R WCI  24
LACON*         FAIR      34  27  75 SW8       29.88R WCI  28
LINCOLN*       FAIR      32  29  90 S6        29.93R WCI  26
SPRINGFIELD    FAIR      35  28  75 S14       29.94R WCI  26
TAYLORVILLE    FAIR      31  27  84 S10       29.96S WCI  22
$$

ILZ033-039-045-046-055>057-062-063-201200-
EAST-CENTRAL ILLINOIS

CITY           SKY/WX    TMP DP  RH WIND       PRES   REMARKS
CHAMPAIGN      FAIR      30  26  85 S10       29.95R WCI  21
DANVILLE*      FAIR      30  25  81 SW15      29.93R WCI  19
RANTOUL*       FAIR      34  30  85 SW16      29.93R WCI  24
MATTOON        FAIR      31  26  82 S12       29.97R WCI  22
PARIS*         FAIR      32  27  80 S17       29.99R WCI  21
$$

ILZ079-100>102-201200-
SOUTHWEST ILLINOIS

CITY           SKY/WX    TMP DP  RH WIND       PRES   REMARKS
ALTON          CLOUDY    33  29  84 S8        29.99R WCI  26
BELLEVILLE     CLOUDY    31  25  76 S8        30.00S WCI  24
CAHOKIA*       CLOUDY    34  26  72 S5        29.99S WCI  30
SPARTA*        CLOUDY    33  26  76 S10       30.04S WCI  25
$$

ILZ064>066-069>071-074>076-080>082-084>086-088>090-092>094-201200-
SOUTH-CENTRAL ILLINOIS

CITY           SKY/WX    TMP DP  RH WIND       PRES   REMARKS
CARBONDALE     FAIR      34  25  69 S12       30.07R WCI  25
CAIRO*         FAIR      36  23  60 S6        30.11S WCI  31
EFFINGHAM*     FAIR      34  27  75 S9        30.02S WCI  27
MARION         FAIR      32  22  68 S8        30.08S WCI  25
MT. VERNON     FAIR      32  26  78 SW12      30.05S WCI  23
CENTRALIA*     PTCLDY    34  28  76 S13       30.02F WCI  25
SALEM*         FAIR      35  26  69 S10G18    30.03R WCI  28
METROPOLIS*    FAIR      36  20  53 S5        30.13R WCI  32
$$

ILZ067-068-072-073-078-083-087-091-201200-
SOUTHEAST ILLINOIS

CITY           SKY/WX    TMP DP  RH WIND       PRES   REMARKS
LAWRENCEVILLE  FAIR      28  20  71 S10       30.06S WCI  19
FLORA*         FAIR      34  26  74 SW8       30.04S WCI  27
FAIRFIELD*     FAIR      31  24  75 S6        30.05S WCI  25
HARRISBURG*    FAIR      35  23  63 SW7       30.09S WCI  29
ROBINSON*      FAIR      32  24  70 SW12      30.05S WCI  23
CARMI*         FAIR      32  22  68 S8        30.08R WCI  25
$$

ABBREVIATIONS USED IN REMARKS
   TC - TEMPERATURE IN CELSIUS
  WCI - WIND CHILL INDEX
   HX - HEAT INDEX
  VSB - VISIBILITY
$$





USA.gov is the U.S. government's official web portal to all federal, state and local government web resources and services.